• In Italy
  • List of Countries
  • For 7 days
  • Water Temperature
  • Satellite Maps
  • Weather Map
  • Weather Widgets
  • user-avatar
    Login

    Hourly Weather Middlesbrough

    Today, 23 November, Thursday

    Time Temperature Precipitation Wind Pressure Humidity
    00:00 +11°C° 1.1 mm 7 mps 732 mmHg 86%
    01:00 +10°C° 0.2 mm 7 mps 732 mmHg 86%
    02:00 +9°C° 0.2 mm 6 mps 732 mmHg 85%
    03:00 +8°C° 0.2 mm 5 mps 732 mmHg 85%
    04:00 +8°C° 0.1 mm 7 mps 733 mmHg 81%
    05:00 +6°C° 0.1 mm 8 mps 734 mmHg 78%
    06:00 +5°C° 0 mm 8 mps 735 mmHg 74%
    07:00 +5°C° 0 mm 8 mps 736 mmHg 74%
    08:00 +4°C° 0 mm 8 mps 737 mmHg 73%
    09:00 +4°C° 0 mm 8 mps 738 mmHg 72%
    10:00 +5°C° 0.1 mm 8 mps 739 mmHg 71%
    11:00 +6°C° 0.1 mm 9 mps 739 mmHg 70%
    12:00 +6°C° 0 mm 9 mps 739 mmHg 71%
    13:00 +6°C° 0.1 mm 9 mps 741 mmHg 72%
    14:00 +5°C° 0.1 mm 9 mps 742 mmHg 72%
    15:00 +5°C° 0.1 mm 9 mps 743 mmHg 72%
    16:00 +4°C° 0 mm 8 mps 744 mmHg 73%
    17:00 +4°C° 0 mm 8 mps 745 mmHg 75%
    18:00 +3°C° 0 mm 7 mps 747 mmHg 76%
    19:00 +3°C° 0 mm 6 mps 748 mmHg 76%
    20:00 +3°C° 0 mm 6 mps 748 mmHg 76%
    21:00 +2°C° 0 mm 6 mps 749 mmHg 76%
    22:00 +2°C° 0 mm 5 mps 750 mmHg 76%
    23:00 +2°C° 0 mm 5 mps 750 mmHg 76%

    Tomorrow, 24 November, Friday

    Time Temperature Precipitation Wind Pressure Humidity
    00:00 +2°C° 0 mm 5 mps 751 mmHg 76%
    01:00 +1°C° 0 mm 4 mps 751 mmHg 77%
    02:00 +1°C° 0 mm 4 mps 751 mmHg 78%
    03:00 +2°C° 0 mm 3 mps 752 mmHg 78%
    04:00 +2°C° 0 mm 3 mps 752 mmHg 79%
    05:00 +1°C° 0 mm 3 mps 752 mmHg 80%
    06:00 +1°C° 0 mm 3 mps 753 mmHg 80%
    07:00 +1°C° 0 mm 3 mps 753 mmHg 80%
    08:00 0°C° 0 mm 4 mps 753 mmHg 79%
    09:00 0°C° 0 mm 4 mps 754 mmHg 78%
    10:00 +3°C° 0 mm 4 mps 754 mmHg 74%
    11:00 +3°C° 0 mm 5 mps 755 mmHg 70%
    12:00 +5°C° 0 mm 5 mps 755 mmHg 66%
    13:00 +3°C° 0 mm 5 mps 755 mmHg 67%
    14:00 +3°C° 0 mm 5 mps 755 mmHg 68%
    15:00 +3°C° 0 mm 5 mps 755 mmHg 69%
    16:00 +2°C° 0 mm 5 mps 755 mmHg 71%
    17:00 +1°C° 0 mm 4 mps 755 mmHg 73%
    18:00 +1°C° 0 mm 4 mps 756 mmHg 76%
    19:00 +1°C° 0 mm 5 mps 756 mmHg 76%
    20:00 0°C° 0 mm 5 mps 756 mmHg 76%
    21:00 0°C° 0 mm 5 mps 756 mmHg 77%
    22:00 0°C° 0 mm 5 mps 756 mmHg 76%
    23:00 0°C° 0 mm 4 mps 756 mmHg 76%

    Day after tomorrow, 25 November, Saturday

    Time Temperature Precipitation Wind Pressure Humidity
    00:00 0°C° 0 mm 4 mps 756 mmHg 75%
    01:00 0°C° 0 mm 4 mps 756 mmHg 75%
    02:00 0°C° 0 mm 4 mps 756 mmHg 76%
    03:00 0°C° 0 mm 4 mps 756 mmHg 76%
    04:00 0°C° 0 mm 4 mps 756 mmHg 77%
    05:00 0°C° 0 mm 4 mps 756 mmHg 77%
    06:00 -1°C° 0 mm 4 mps 756 mmHg 78%
    07:00 0°C° 0 mm 4 mps 756 mmHg 77%
    08:00 0°C° 0 mm 4 mps 757 mmHg 76%
    09:00 0°C° 0 mm 4 mps 757 mmHg 75%
    10:00 +1°C° 0 mm 5 mps 757 mmHg 71%
    11:00 +2°C° 0 mm 5 mps 758 mmHg 66%
    12:00 +3°C° 0 mm 6 mps 758 mmHg 62%
    13:00 +3°C° 0 mm 6 mps 758 mmHg 63%
    14:00 +2°C° 0 mm 6 mps 758 mmHg 65%
    15:00 +2°C° 0 mm 5 mps 759 mmHg 67%
    16:00 +1°C° 0 mm 6 mps 759 mmHg 69%
    17:00 +1°C° 0 mm 6 mps 759 mmHg 71%
    18:00 -1°C° 0 mm 6 mps 760 mmHg 74%
    19:00 -1°C° 0 mm 6 mps 760 mmHg 74%
    20:00 -1°C° 0 mm 6 mps 760 mmHg 74%
    21:00 0°C° 0 mm 7 mps 760 mmHg 74%
    22:00 -1°C° 0 mm 6 mps 761 mmHg 76%
    23:00 -1°C° 0 mm 6 mps 761 mmHg 77%

    26 November, Sunday

    Time Temperature Precipitation Wind Pressure Humidity
    00:00 -1°C° 0 mm 6 mps 761 mmHg 79%
    01:00 -1°C° 0 mm 6 mps 761 mmHg 80%
    02:00 -1°C° 0 mm 6 mps 761 mmHg 80%
    03:00 -1°C° 0 mm 6 mps 762 mmHg 81%
    04:00 -1°C° 0 mm 6 mps 762 mmHg 81%
    05:00 -1°C° 0 mm 6 mps 762 mmHg 81%
    06:00 -1°C° 0 mm 6 mps 762 mmHg 81%
    07:00 -1°C° 0 mm 6 mps 762 mmHg 80%
    08:00 +1°C° 0 mm 6 mps 762 mmHg 79%
    09:00 +1°C° 0 mm 6 mps 763 mmHg 79%
    10:00 +2°C° 0 mm 6 mps 763 mmHg 74%
    11:00 +3°C° 0 mm 6 mps 763 mmHg 69%
    12:00 +3°C° 0 mm 7 mps 763 mmHg 64%
    13:00 +3°C° 0 mm 6 mps 763 mmHg 67%
    14:00 +3°C° 0 mm 6 mps 763 mmHg 69%
    15:00 +3°C° 0 mm 6 mps 763 mmHg 72%
    16:00 +2°C° 0 mm 5 mps 763 mmHg 75%
    17:00 +2°C° 0 mm 5 mps 763 mmHg 79%
    18:00 +1°C° 0 mm 5 mps 763 mmHg 83%
    19:00 +1°C° 0 mm 4 mps 763 mmHg 84%
    20:00 +1°C° 0 mm 4 mps 763 mmHg 85%
    21:00 +2°C° 0 mm 3 mps 763 mmHg 86%
    22:00 +2°C° 0 mm 3 mps 763 mmHg 87%
    23:00 +2°C° 0 mm 3 mps 762 mmHg 88%

    27 November, Monday

    Time Temperature Precipitation Wind Pressure Humidity
    00:00 +2°C° 0 mm 3 mps 762 mmHg 89%
    01:00 +3°C° 0.1 mm 3 mps 761 mmHg 90%
    02:00 +3°C° 0.1 mm 3 mps 760 mmHg 91%
    03:00 +3°C° 0.1 mm 3 mps 760 mmHg 93%
    04:00 +3°C° 0.5 mm 3 mps 759 mmHg 94%
    05:00 +4°C° 0.5 mm 2 mps 759 mmHg 95%
    06:00 +4°C° 0.5 mm 2 mps 758 mmHg 96%
    07:00 +4°C° 0.4 mm 2 mps 758 mmHg 95%
    08:00 +5°C° 0.4 mm 1 mps 757 mmHg 95%
    09:00 +5°C° 0.4 mm 1 mps 757 mmHg 95%
    10:00 +6°C° 0 mm 1 mps 757 mmHg 92%
    11:00 +6°C° 0 mm 2 mps 757 mmHg 90%
    12:00 +7°C° 0 mm 2 mps 757 mmHg 87%
    13:00 +6°C° 0 mm 2 mps 756 mmHg 88%
    14:00 +5°C° 0 mm 3 mps 756 mmHg 88%
    15:00 +5°C° 0 mm 3 mps 756 mmHg 88%
    16:00 +5°C° 0.1 mm 4 mps 756 mmHg 87%
    17:00 +5°C° 0.1 mm 4 mps 756 mmHg 86%
    18:00 +5°C° 0.1 mm 5 mps 755 mmHg 85%
    19:00 +3°C° 0 mm 5 mps 755 mmHg 85%
    20:00 +4°C° 0 mm 4 mps 754 mmHg 86%
    21:00 +4°C° 0 mm 4 mps 754 mmHg 87%
    22:00 +4°C° 0 mm 4 mps 753 mmHg 88%
    23:00 +4°C° 0 mm 4 mps 752 mmHg 89%

    28 November, Tuesday

    Time Temperature Precipitation Wind Pressure Humidity
    00:00 +3°C° 0 mm 5 mps 751 mmHg 91%
    01:00 +4°C° 0.6 mm 4 mps 750 mmHg 88%
    02:00 +4°C° 0.6 mm 4 mps 749 mmHg 85%
    03:00 +4°C° 0.6 mm 4 mps 748 mmHg 82%
    04:00 +4°C° 0.2 mm 3 mps 748 mmHg 83%
    05:00 +3°C° 0.2 mm 3 mps 747 mmHg 85%
    06:00 +4°C° 0.2 mm 2 mps 746 mmHg 87%
    07:00 +3°C° 0.2 mm 3 mps 746 mmHg 86%
    08:00 +3°C° 0.2 mm 4 mps 746 mmHg 85%
    09:00 +2°C° 0.2 mm 5 mps 746 mmHg 84%
    10:00 +2°C° 0.3 mm 5 mps 746 mmHg 83%
    11:00 +2°C° 0.3 mm 6 mps 747 mmHg 82%
    12:00 +3°C° 0.3 mm 6 mps 747 mmHg 81%
    13:00 +3°C° 0.5 mm 7 mps 747 mmHg 81%
    14:00 +3°C° 0.5 mm 7 mps 747 mmHg 82%
    15:00 +4°C° 0.5 mm 7 mps 747 mmHg 82%
    16:00 +3°C° 0.1 mm 7 mps 747 mmHg 83%
    17:00 +2°C° 0.1 mm 7 mps 748 mmHg 84%
    18:00 +2°C° 0.1 mm 6 mps 748 mmHg 85%
    19:00 +2°C° 0.3 mm 7 mps 748 mmHg 85%
    20:00 +2°C° 0.3 mm 7 mps 748 mmHg 85%
    21:00 +2°C° 0.3 mm 7 mps 748 mmHg 85%
    22:00 +2°C° 1.3 mm 8 mps 748 mmHg 86%
    23:00 +2°C° 1.3 mm 8 mps 748 mmHg 87%
    Show more